Regional Weather Roundup
Issued by NWS

Home | Current Version | Previous Version | Graphics & Text | Print | Product List | Glossary On
Versions: 1 2 3 4 5 6 7 8 9 10 11 12 13 14 15 16 17 18 19 20 21 22 23 24 25 26 27 28 29 30 31 32 33 34 35 36 37 38 39 40 41 42 43 44 45 46 47 48
000
ASUS45 KBOU 221507
RWRCO

WEATHER ROUNDUP FOR COLORADO
NATIONAL WEATHER SERVICE DENVER/BOULDER CO
900 AM MDT TUE JUL 22 2014

NOTE: "FAIR" INDICATES FEW OR NO CLOUDS BELOW 12000 FEET WITH NO
SIGNIFICANT WEATHER AND/OR OBSTRUCTIONS TO VISIBILITY.

COZ001>005-013-030-031-221600-
...NORTHWEST COLORADO...

CITY           SKY/WX    TMP DP  RH WIND       PRES   REMARKS
CRAIG          SUNNY     58  43  57 CALM      30.40R
HAYDEN         SUNNY     66  37  34 SE13      30.42R
MEEKER         SUNNY     66  36  32 CALM      30.41R
MOUNT WERNER   NOT AVBL
STEAMBOAT SPGS SUNNY     61  38  43 CALM      30.45R
WALDEN         SUNNY     59  41  51 CALM      30.53R
$$

COZ006>008-011-221600-
...WEST CENTRAL VALLEYS...

CITY           SKY/WX    TMP DP  RH WIND       PRES   REMARKS
GRAND JUNCTION SUNNY     76  34  21 SE13      30.29R
MONTROSE       SUNNY     74  38  27 E6        30.38S
EAGLE          SUNNY     61  41  48 CALM      30.49S
RIFLE          SUNNY     68  39  34 VRB5      30.37S
DELTA          SUNNY     73  34  23 N3        30.36R
NUCLA          SUNNY     70  37  30 N3        30.41S
$$

COZ017>023-064>068-221600-
...SOUTHWEST COLORADO...

CITY           SKY/WX    TMP DP  RH WIND       PRES   REMARKS
DURANGO        SUNNY     71  40  32 NE3       30.41R
CORTEZ         SUNNY     72  38  29 CALM      30.36R
PAGOSA SPRINGS SUNNY     71  39  31 CALM      30.50R
TELLURIDE      SUNNY     64  32  29 CALM      30.61S
WOLF CREEK PAS NOT AVBL
$$

COZ009-010-012-014-032>034-037-058>063-221600-
...CENTRAL COLORADO...

CITY           SKY/WX    TMP DP  RH WIND       PRES   REMARKS
ASPEN          SUNNY     67  38  34 CALM      30.52S
BUENA VISTA    SUNNY     68  33  26 NW10      30.53F
COPPER MTN     SUNNY     61  27  27 W6        30.87R
BERTHOUD PASS  FAIR      52  37  58 NW8       30.90S
COTTONWOOD PAS SUNNY     70  21  16 CALM      30.68S
GUNNISON       SUNNY     55  37  50 CALM      30.60S
KREMMLING      SUNNY     59  39  47 CALM      30.54S
LEADVILLE      SUNNY     59  34  39 CALM      30.68R
MONARCH PASS   SUNNY     55  30  38 CALM      30.95R
SALIDA         SUNNY     67  38  35 CALM      30.59R
SUNLIGHT       SUNNY     64  27  24 CALM      30.77R
WILKERSON PASS SUNNY     63  28  27 CALM      30.82R
$$

COZ069>075-221600-
...SAN LUIS VALLEY/SANGRE DE CRISTO MOUNTAINS...

CITY           SKY/WX    TMP DP  RH WIND       PRES   REMARKS
ALAMOSA        SUNNY     63  48  58 CALM      30.49S
LA VETA PASS   NOT AVBL
SAGUACHE       SUNNY     64  41  42 W7        30.53R
$$

COZ035-036-038>040-221600-
...NORTHERN COLORADO FRONT RANGE...

CITY           SKY/WX    TMP DP  RH WIND       PRES   REMARKS
DENVER INTL AP MOSUNNY   75  48  38 NW10      30.33R
DMNS CITY PARK   N/A     76  48  38 N8        30.33S
AURORA         MOSUNNY   73  50  45 N9        30.35R
FRONT RANGE AP SUNNY     75  50  41 NW12      30.34
ERIE MUNI ARPT SUNNY     74  47  38 NE5       30.31S
BOULDER MUN AP SUNNY     75  46  35 CALM      30.32R
CENTENNIAL     MOSUNNY   72  47  40 NW9       30.36R
BROOMFIELD     NOT AVBL
FORT COLLINS   SUNNY     73  52  46 N7        30.31S
LONGMONT       SUNNY     78  49  35 CALM      30.32S
$$

COZ041-046-047-076>085-087-088-221600-
...PIKES PEAK/PALMER DIVIDE AND SOUTHERN FOOTHILLS...

CITY           SKY/WX    TMP DP  RH WIND       PRES   REMARKS
COLO. SPRINGS  MOSUNNY   84  46  26 N12       30.34R
A. F. ACADEMY  SUNNY     81  45  28 N12       30.38R
ELLICOTT       SUNNY     84  47  27 N10       30.32R
FALCON         SUNNY     81  44  26 N10       30.41R
FORT CARSON    SUNNY     80  49  34 N9        30.31R
LIMON          SUNNY     79  48  33 N20G35    30.31R
MONUMENT HILL  SUNNY     72  41  33 NW14      30.43R
TRINIDAD       SUNNY     79  54  41 W15       30.30R
$$

COZ042>045-048>051-090-091-221600-
...NORTHEAST COLORADO...

CITY           SKY/WX    TMP DP  RH WIND       PRES   REMARKS
GREELEY ARPT   SUNNY     73  55  53 N8G17     30.30R
AKRON          SUNNY     78  56  46 E17       30.26S
BURLINGTON     SUNNY     81  57  43 NE10      30.20R
WRAY             N/A     82  56  41 E14G21    30.19S
STERLING       SUNNY     81  57  44 NW3       30.23R
HOLYOKE        SUNNY     81  59  47 E7        30.21R
FORT MORGAN    SUNNY     76  51  41 CALM      30.29R
$$

COZ086-089-092>099-221600-
...SOUTHEAST COLORADO...

CITY           SKY/WX    TMP DP  RH WIND       PRES   REMARKS
PUEBLO         SUNNY     78  51  38 NW8       30.22S
LA JUNTA       SUNNY     76  61  59 W9        30.18R
LAMAR          SUNNY     79  60  52 NE3       30.14S
SPRINGFIELD      N/A     82  59  45 NE8       30.19R
$$


USA.gov is the U.S. government's official web portal to all federal, state and local government web resources and services.